TimeEST,TemperatureF,Dew PointF,Humidity,Sea Level PressureIn,VisibilityMPH,Wind Direction,Wind SpeedMPH,Gust SpeedMPH,PrecipitationIn,Events,Conditions,WindDirDegrees,DateUTC
12:15 AM,43.9,34.3,69,29.84,10.0,WNW,15.0,-,N/A,,Clear,290,2013-02-27 05:15:00
12:35 AM,43.9,33.6,67,29.84,10.0,WNW,12.7,-,N/A,,Clear,300,2013-02-27 05:35:00
12:55 AM,43.9,32.9,65,29.84,10.0,WNW,17.3,25.3,N/A,,Clear,300,2013-02-27 05:55:00
1:15 AM,44.8,32.7,63,29.85,10.0,West,13.8,18.4,N/A,,Mostly Cloudy,280,2013-02-27 06:15:00
1:35 AM,44.8,33.6,65,29.86,10.0,West,8.1,16.1,N/A,,Overcast,270,2013-02-27 06:35:00
1:55 AM,45.0,33.1,63,29.85,10.0,West,13.8,24.2,N/A,,Overcast,270,2013-02-27 06:55:00
2:15 AM,44.8,33.1,64,29.85,10.0,West,11.5,16.1,N/A,,Overcast,280,2013-02-27 07:15:00
2:35 AM,44.6,33.8,66,29.85,10.0,West,12.7,17.3,N/A,,Overcast,270,2013-02-27 07:35:00
2:55 AM,44.6,33.8,66,29.86,10.0,West,11.5,17.3,N/A,,Overcast,270,2013-02-27 07:55:00
3:15 AM,44.6,33.3,64,29.85,10.0,West,18.4,24.2,N/A,,Overcast,280,2013-02-27 08:15:00
3:35 AM,44.6,33.8,66,29.85,10.0,West,12.7,20.7,N/A,,Overcast,280,2013-02-27 08:35:00
3:55 AM,44.1,32.9,65,29.85,10.0,West,11.5,19.6,N/A,,Overcast,280,2013-02-27 08:55:00
4:15 AM,43.7,32.9,66,29.86,10.0,WNW,13.8,-,N/A,,Overcast,290,2013-02-27 09:15:00
4:35 AM,43.5,32.7,66,29.86,10.0,WNW,9.2,-,N/A,,Overcast,290,2013-02-27 09:35:00
4:55 AM,42.8,32.9,68,29.87,10.0,West,9.2,-,N/A,,Overcast,280,2013-02-27 09:55:00
5:15 AM,42.8,32.4,67,29.87,10.0,WNW,9.2,-,N/A,,Mostly Cloudy,290,2013-02-27 10:15:00
5:35 AM,42.6,32.5,68,29.87,10.0,West,6.9,-,N/A,,Scattered Clouds,280,2013-02-27 10:35:00
5:55 AM,41.7,32.7,70,29.87,10.0,WNW,9.2,-,N/A,,Clear,290,2013-02-27 10:55:00
6:15 AM,41.7,32.7,70,29.88,10.0,WNW,9.2,-,N/A,,Scattered Clouds,290,2013-02-27 11:15:00
6:35 AM,40.8,32.7,73,29.88,10.0,WNW,6.9,-,N/A,,Clear,290,2013-02-27 11:35:00
6:55 AM,40.6,32.5,73,29.88,10.0,WNW,6.9,-,N/A,,Clear,290,2013-02-27 11:55:00
7:15 AM,39.9,32.4,74,29.89,10.0,West,4.6,-,N/A,,Clear,260,2013-02-27 12:15:00
7:35 AM,40.1,32.4,74,29.89,10.0,WSW,3.5,-,N/A,,Clear,250,2013-02-27 12:35:00
7:55 AM,39.9,32.9,76,29.91,10.0,WSW,3.5,-,N/A,,Clear,240,2013-02-27 12:55:00
8:15 AM,41.0,33.8,76,29.92,10.0,WSW,3.5,-,N/A,,Clear,250,2013-02-27 13:15:00
8:35 AM,42.8,34.2,72,29.91,10.0,WSW,4.6,-,N/A,,Clear,250,2013-02-27 13:35:00
8:55 AM,44.6,34.7,68,29.92,10.0,WNW,6.9,-,N/A,,Clear,290,2013-02-27 13:55:00
9:15 AM,45.5,34.5,65,29.92,10.0,West,8.1,-,N/A,,Clear,280,2013-02-27 14:15:00
9:35 AM,45.9,34.5,65,29.92,10.0,NW,11.5,18.4,N/A,,Clear,310,2013-02-27 14:35:00
9:55 AM,46.8,35.4,65,29.94,10.0,WNW,5.8,-,N/A,,Clear,290,2013-02-27 14:55:00
10:15 AM,48.6,35.4,60,29.93,10.0,West,11.5,-,N/A,,Clear,280,2013-02-27 15:15:00
10:35 AM,48.7,35.1,59,29.93,10.0,WNW,6.9,-,N/A,,Clear,300,2013-02-27 15:35:00
10:55 AM,50.2,35.4,57,29.93,10.0,West,9.2,-,N/A,,Clear,280,2013-02-27 15:55:00
11:15 AM,51.4,35.2,54,29.92,10.0,WNW,12.7,17.3,N/A,,Clear,300,2013-02-27 16:15:00
11:35 AM,51.8,35.4,54,29.93,10.0,West,4.6,-,N/A,,Clear,270,2013-02-27 16:35:00
11:55 AM,52.9,36.1,53,29.92,10.0,NW,8.1,-,N/A,,Clear,310,2013-02-27 16:55:00
12:15 PM,54.5,35.6,49,29.92,10.0,West,11.5,17.3,N/A,,Clear,260,2013-02-27 17:15:00
12:35 PM,56.1,36.3,47,29.92,10.0,West,9.2,18.4,N/A,,Clear,270,2013-02-27 17:35:00
12:55 PM,56.7,35.8,46,29.91,10.0,West,12.7,-,N/A,,Clear,280,2013-02-27 17:55:00
1:15 PM,57.7,36.3,45,29.90,10.0,WNW,15.0,21.9,N/A,,Clear,290,2013-02-27 18:15:00
1:35 PM,58.6,36.0,43,29.89,10.0,West,11.5,-,N/A,,Clear,270,2013-02-27 18:35:00
1:55 PM,59.2,35.4,41,29.88,10.0,WNW,11.5,21.9,N/A,,Clear,290,2013-02-27 18:55:00
2:15 PM,60.4,36.0,40,29.87,10.0,West,10.4,17.3,N/A,,Clear,270,2013-02-27 19:15:00
2:35 PM,61.0,35.8,39,29.87,10.0,West,12.7,21.9,N/A,,Clear,270,2013-02-27 19:35:00
2:55 PM,60.6,35.8,40,29.86,10.0,West,9.2,16.1,N/A,,Clear,270,2013-02-27 19:55:00
3:15 PM,61.9,36.3,39,29.86,10.0,WSW,12.7,19.6,N/A,,Clear,240,2013-02-27 20:15:00
3:35 PM,61.7,36.1,39,29.86,10.0,WSW,13.8,21.9,N/A,,Clear,250,2013-02-27 20:35:00
3:55 PM,61.2,34.7,37,29.86,10.0,West,16.1,21.9,N/A,,Clear,280,2013-02-27 20:55:00
4:15 PM,61.2,34.5,37,29.85,10.0,WSW,15.0,23.0,N/A,,Clear,250,2013-02-27 21:15:00
4:35 PM,61.3,35.1,37,29.86,10.0,West,9.2,20.7,N/A,,Clear,270,2013-02-27 21:35:00
4:55 PM,61.0,34.9,38,29.86,10.0,West,12.7,25.3,N/A,,Clear,260,2013-02-27 21:55:00
5:15 PM,60.8,35.4,39,29.85,10.0,WSW,15.0,19.6,N/A,,Clear,250,2013-02-27 22:15:00
5:35 PM,59.9,35.2,40,29.86,10.0,WSW,11.5,19.6,N/A,,Clear,240,2013-02-27 22:35:00
5:55 PM,59.0,35.2,41,29.86,10.0,WSW,9.2,17.3,N/A,,Clear,250,2013-02-27 22:55:00
6:15 PM,58.1,35.6,43,29.86,10.0,WSW,8.1,-,N/A,,Clear,250,2013-02-27 23:15:00
6:35 PM,56.8,35.2,44,29.86,10.0,WSW,5.8,-,N/A,,Clear,250,2013-02-27 23:35:00
6:55 PM,55.6,35.1,46,29.87,10.0,WSW,8.1,-,N/A,,Clear,250,2013-02-27 23:55:00
7:15 PM,54.9,35.6,48,29.87,10.0,West,6.9,-,N/A,,Clear,260,2013-02-28 00:15:00
7:35 PM,54.1,35.6,50,29.88,10.0,West,8.1,-,N/A,,Clear,260,2013-02-28 00:35:00
7:55 PM,53.4,35.2,50,29.89,10.0,WSW,4.6,-,N/A,,Clear,250,2013-02-28 00:55:00
8:15 PM,52.2,35.6,53,29.89,10.0,West,5.8,-,N/A,,Clear,270,2013-02-28 01:15:00
8:35 PM,51.1,35.6,55,29.89,10.0,West,5.8,-,N/A,,Clear,270,2013-02-28 01:35:00
8:55 PM,50.0,35.6,58,29.89,10.0,West,5.8,-,N/A,,Clear,270,2013-02-28 01:55:00
9:15 PM,50.7,35.2,55,29.89,10.0,West,4.6,-,N/A,,Clear,260,2013-02-28 02:15:00
9:35 PM,50.0,35.2,57,29.89,10.0,West,4.6,-,N/A,,Clear,260,2013-02-28 02:35:00
9:55 PM,49.3,35.1,58,29.89,10.0,WSW,5.8,-,N/A,,Clear,250,2013-02-28 02:55:00
10:15 PM,49.1,35.2,59,29.89,10.0,West,5.8,-,N/A,,Scattered Clouds,260,2013-02-28 03:15:00
10:35 PM,47.8,35.6,63,29.90,10.0,West,5.8,-,N/A,,Scattered Clouds,260,2013-02-28 03:35:00
10:55 PM,48.2,35.8,62,29.90,10.0,West,6.9,-,N/A,,Clear,280,2013-02-28 03:55:00
11:15 PM,48.4,36.0,62,29.90,10.0,West,10.4,-,N/A,,Clear,270,2013-02-28 04:15:00
11:35 PM,48.9,35.8,61,29.90,10.0,WNW,11.5,17.3,N/A,,Scattered Clouds,290,2013-02-28 04:35:00
11:55 PM,49.1,35.8,60,29.90,10.0,WNW,16.1,21.9,N/A,,Clear,300,2013-02-28 04:55:00